Regional Weather Roundup
Issued by NWS

Home | Current Version | Previous Version | Graphics & Text | Print | Product List | Glossary Off
Versions: 1 2 3 4 5 6 7 8 9 10 11 12 13 14 15 16 17 18 19 20 21 22 23 24 25 26 27 28 29 30 31 32 33 34 35 36 37 38 39 40 41 42 43 44 45 46 47 48 49 50

000
ASUS43 KDTX 281110
RWRMI
MICHIGAN HOURLY REGIONAL WEATHER ROUNDUP
NATIONAL WEATHER SERVICE DETROIT/PONTIAC MI
600 AM EST SUN DEC 28 2014

NOTE: "FAIR" INDICATES FEW OR NO CLOUDS BELOW 12,000 FEET WITH NO
SIGNIFICANT WEATHER AND/OR OBSTRUCTION TO VISIBILITY.

MIZ047>049-052>055-059>063-066>070-074>076-081>083-281200-
SOUTHEAST LOWER MICHIGAN

CITY           SKY/WX    TMP DP  RH WIND       PRES   REMARKS
ADRIAN         CLOUDY    35  29  78 W6        30.05R WCI  30
ALMA           CLOUDY    32  30  91 W5        30.03R WCI  28
ANN ARBOR      CLOUDY    35  30  82 W7        30.03R WCI  29
BAD AXE        CLOUDY    32  29  88 CALM      29.99R
CARO           CLOUDY    32  31  94 SW3       30.00R
DETROIT CITY   CLOUDY    38  30  73 NW3       30.03R
DETROIT        CLOUDY    36  30  79 W8        30.03R WCI  30
FLINT          CLOUDY    36  31  82 W7        30.02R WCI  30
GROSSE ILE     CLOUDY    37  30  75 W5        30.03R WCI  34
HILLSDALE      CLOUDY    34  31  90 W8        30.03R WCI  27
HOWELL         CLOUDY    34  32  92 W5        30.02R WCI  30

CITY           SKY/WX    TMP DP  RH WIND       PRES   REMARKS
JACKSON        CLOUDY    33  30  88 NW6       30.03R WCI  28
LAMBERTVILLE   CLOUDY    36  32  87 W6        30.05R WCI  31
LANSING        FLURRIES  33  31  92 W12       30.04R WCI  24
LAPEER         CLOUDY    34  29  83 NW5       30.00R WCI  30
MASON          CLOUDY    33  31  94 NW3       30.03R
MONROE         CLOUDY    36  30  80 W6        30.03R WCI  31
MT. CLEMENS    CLOUDY    36  33  89 W6        30.00R WCI  31
PONTIAC        MOCLDY    34  30  85 NW7       30.00R WCI  28
PORT HOPE        N/A     34  24  67 SW5       29.96S WCI  30
PORT HURON     CLOUDY    36  30  80 NW6       30.01R WCI  31
TRI CITIES     CLOUDY    35  29  78 W6        30.02R WCI  30
TROY           CLOUDY    38  31  77 NW5       30.03R WCI  34
SAGINAW HB     LGT SNOW  34  32  93 W6        30.01R WCI  29
$$
MIZ043>046-050>051-056>058-064>065-071>073-077>080-281200-
SOUTHWEST LOWER MICHIGAN

CITY           SKY/WX    TMP DP  RH WIND       PRES   REMARKS
BATTLE CREEK   CLOUDY    34  28  79 NW9       30.06R WCI  27
BENTON HARBOR  CLOUDY    31  23  72 W12       30.11R WCI  22
BIG RAPIDS     CLOUDY    31  26  82 W7        30.01R WCI  24
COLDWATER      CLOUDY    33  30  88 W8        30.05R WCI  26
FREMONT        CLOUDY    29  25  82 W7        30.05R WCI  22
HOLLAND        CLOUDY    34  25  69 VRB7      30.09R WCI  28
GRAND RAPIDS   CLOUDY    32  27  81 W9        30.06R WCI  24
IONIA          CLOUDY    33  31  92 W9        30.04R WCI  25
KALAMAZOO      CLOUDY    33  27  78 NW12      30.07R WCI  24
LUDINGTON      PTCLDY    30  23  74 NW8       30.07R WCI  23
MARSHALL       CLOUDY    32  30  93 W9        30.04R WCI  24
MOUNT PLEASANT CLOUDY    32  26  77 CALM      30.01R
MUSKEGON       MOCLDY    32  23  69 W10       30.08R WCI  24
SOUTH HAVEN    CLOUDY    33  24  68 NW9       30.10R WCI  26
$$
MIZ016>042-281200-
NORTHERN LOWER MICHIGAN

CITY           SKY/WX    TMP DP  RH WIND       PRES   REMARKS
ALPENA         CLOUDY    30  23  75 W3        29.96R
BEAVER ISLAND  CLEAR     25  18  72 W9        29.98S WCI  16
BELLAIRE       CLOUDY    30  20  66 W5        30.00R WCI  26
CADILLAC       CLOUDY    27  20  77 W12G21    29.98R WCI  16
CHARLEVOIX     MOCLDY    27  19  72 W13       30.01R WCI  17
FRANKFORT      MOCLDY    28  22  79 W9        30.03S WCI  19
GAYLORD        CLOUDY    27  19  72 W9        29.94R WCI  18
GRAYLING       CLOUDY    28  23  80 W12       29.96S WCI  18
HARBOR SPRINGS PTCLDY    27  17  64 W6        29.97R WCI  21
HOUGHTON LAKE  CLOUDY    29  23  78 NW13      29.97R WCI  19
MANISTEE       PTCLDY    28  18  64 NW9       30.05S WCI  20
OSCODA         CLOUDY    31  28  86 SW5       29.96R WCI  26
PELLSTON       PTCLDY    26  18  71 W8        29.97S WCI  18
ROGERS CITY    MOCLDY    28  24  83 W3        29.97R
TRAVERSE CITY  CLOUDY    29  19  66 W12       30.01R WCI  19
$$
MIZ007>008-015-281200-
EASTERN UPPER MICHIGAN

CITY           SKY/WX    TMP DP  RH WIND       PRES   REMARKS
KINROSS        MOCLDY    25  21  86 W7        29.92S WCI  17
MACKINAC ISLAN MOCLDY    26  19  77 W6        29.95S WCI  19
NEWBERRY       MOCLDY    18  16  90 W9        29.93S WCI   7
S. S. MARIE    PTCLDY    26  20  77 W8        29.89S WCI  18
MUNISING         N/A     20  12  71 SW10      29.96R WCI   9
$$
MIZ004>006-011>014-085-281200-
CENTRAL UPPER MICHIGAN

CITY           SKY/WX    TMP DP  RH WIND       PRES   REMARKS
MANISTIQUE     CLEAR     18  16  90 W5        29.97S WCI  11
ESCANABA       CLEAR     18  12  79 W12       29.99R WCI   5
MENOMINEE      CLEAR     19  14  79 W8        30.03R WCI   9
SAWYER-GWINN   CLOUDY    13   9  85 W5        29.94R WCI   5
$$
MIZ001>003-009>011-084-281200-
WESTERN UPPER MICHIGAN

CITY           SKY/WX    TMP DP  RH WIND       PRES   REMARKS
IRON MOUNTAIN    N/A     12   8  84 W5        29.97R WCI   4
HOUGHTON       LGT SNOW  20  15  81 NW14      29.93R WCI   7
COPPER HARBOR    N/A     23  17  78 N22       29.94R WCI   8
IRONWOOD       CLOUDY    16  14  93 W9        29.96S WCI   4
$$

ABBREVIATIONS USED IN REMARKS
   TC - TEMPERATURE IN CELSIUS
  WCI - WIND CHILL INDEX
   HX - HEAT INDEX
  VSB - VISIBILITY




USA.gov is the U.S. government's official web portal to all federal, state and local government web resources and services.